Other Surface Observations
Issued by NWS

Home | Current Version | Previous Version | Text Only | Print | Product List | Glossary On
Versions: 1 2 3 4 5 6 7 8 9 10 11 12 13 14 15 16 17 18 19 20 21 22 23 24 25 26 27 28 29 30 31 32 33 34 35 36 37 38 39 40 41 42 43 44 45 46 47 48 49 50
000
SXUS52 KTAE 302318
OSOTAE
OSOTAE
North Florida/South Alabama/Southwest Georgia Weather Roundup
National Weather Service Tallahassee Florida
700 PM EDT THU OCT 30 2014

Note: "fair" indicates few or no clouds below 12,000 feet with no
significant weather and/or obstructions to visibility.

!FLZ017-115-028-034-025-310000
...North Florida...

CITY           SKY/WX    TMP DP  RH WIND       PRES   REMARKS
TALLAHASSEE    CLEAR     71  46  40 N3        29.94R
APALACHICOLA   CLEAR     70  51  51 CALM      29.94R
PERRY          PTCLDY    64  50  59 NW5       29.93R
CROSS CITY       N/A     73  64  73 NW5       29.90R
JACKSONVILLE   MOCLDY    71  68  90 E3        29.90R
$$

!FLZ112-006-005-002-011-310000
...Florida Panhandle...

CITY           SKY/WX    TMP DP  RH WIND       PRES   REMARKS
MARIANNA       LGT RAIN  66  43  43 N6        29.95R
BONIFAY        FAIR      60  48  64 CALM      29.98R
PANAMA CITY NW FAIR      65  47  52 NW6       29.95R
TYNDALL AFB    CLEAR     68  47  48 N7        29.96R
TYND DRONE APT FAIR      66  47  50 MISG      29.94R
DE FUNIAK SPR  FAIR      64  45  49 N5        29.98R
EGLIN AFB      PTCLDY    67  45  44 N6        29.98R
DESTIN         CLEAR     69  44  40 N10       29.97R
HURLBURT       CLEAR     65  40  39 N8        29.97R
CRESTVIEW      CLEAR     65  46  50 N3        29.99S
PENSACOLA      CLEAR     66  43  43 N6        29.99R
$$

!ALZ063-066-310000
...South Alabama...

CITY           SKY/WX    TMP DP  RH WIND       PRES   REMARKS
DOTHAN         CLEAR     64  41  42 NW6       30.00R
OZARK CAIRNS   CLEAR     65  42  42 NW6       29.98R
FT RUCKER HELI CLEAR     61  44  53 N5        29.97R HAZE
RUCKER HELI 3  NOT AVBL
RUCKER HELI 2  FAIR      63  42  46 NW3       29.98R
FLORALA APT    CLEAR     63  42  46 CALM      30.00R
ANDALUSIA      CLEAR     67  40  37 N3        29.99R
TROY           CLEAR     62  41  46 NW6       30.00R
EUFALA         FAIR      56  48  74 CALM      29.97R
MOBILE         PTCLDY    64  41  42 N7        30.02R
$$

!GAZ120>161-310000
...Southwest and South Central Georgia...

CITY           SKY/WX    TMP DP  RH WIND       PRES   REMARKS
THOMASVILLE    FAIR      64  50  59 CALM      29.95R
BAINBRIDGE     CLEAR     68  46  45 NW6       29.96R
MOODY AFB      CLEAR     63  56  78 CALM      29.93R
VALDOSTA       CLEAR     61  52  72 CALM      29.92S
MOULTRIE       CLEAR     66  48  52 NW3       29.95R
BLAKELY        CLEAR     64  45  48 CALM      29.97S
ALBANY         CLEAR     64  51  62 CALM      29.97R
TIFTON         FAIR      67  47  49 NW6       29.94R
FITZGERALD     FAIR      68  44  41 N6        29.96R
CORDELE        FAIR      63  52  67 NW3       29.96S
AMERICUS       FAIR      61  46  59 CALM      29.98S
HOMERVILLE     FAIR      64  57  77 CALM      29.92S HAZE
$$

!GMZ750-755-770-775-310000
...Coastal and Buoy Obs...

STATION/POSITION TIME  TEMP    WIND        PRES    VSBY  WAVE
                       AIR SEA DIR/SP/G                  HT/PER
                 (UTC) (F)     (DEG/KT/KT) (MB)    (MI)  (FT/S)
KEATON BEACH     2300   69     350/  6/  8 1013.2R
CEDAR KEY        2258   72     330/  6/  8 1013.1R
C TOWER          2300   70      10/  6/  7 1013.7R
APALACHICOLA BUO 2300   73 80   10/ 14/ 16 1012.9R         2/ 5
PANAMA CITY BUOY 2151   71 79  350/ 14/ 16 1014.0          3/ 5
MOBILE BUOY      2226   69 78   10/ 12/ 14 1016.3R         4/ 6
ORANGE BCH AL BU 2300   71 77  360/ 12/ 16 1014.9R         2/ 4
$$



USA.gov is the U.S. government's official web portal to all federal, state and local government web resources and services.